Location: Alexander
(41.3564°N, 81.5960°W)
Time: 09:32:54
(UTC+00:00)

Cosmos 2082 Rocket - Pass Details

Date: 24 January 2021
Orbit: 832 x 855 km, 71.0° (Epoch: 02 March)

Event Time Altitude Azimuth Distance (km) Brightness Sun altitude
Rises 23:41:08 0° 348° (NNW) 3,434 5.4 -12.8°
Reaches altitude 10° 23:44:35 10° 9° (N) 2,492 4.4 -13.5°
Maximum altitude 23:48:08 17° 48° (NE) 2,057 3.7 -14.1°
Enters shadow 23:48:18 17° 50° (NE) 2,057 3.7 -14.2°
